Big Bear Station Historical Data
Daily Summary for June 19, 2019 Units:  English    Metric   Both
Next Day »
Daily Weekly Monthly Yearly Custom
  High: Low: Average:
Temperature: 84.4 °F 48.4 °F 64.4 °F
Dew Point: 53.7 °F 39.8 °F 45.8 °F
Humidity: 90% 23% 56%
Wind Speed: 4.7mph 0mph 0.3mph
Wind Gust: -999mph - -
Wind- - WSW
Pressure: 23.60 in 23.55 in -
Precipitation: 0 in    
Historical Graphs
 
 
Tabular Data for June 19, 2019
Time Temperature Dew Point Pressure Wind Wind Speed Wind Gust Humidity Rainfall Rate (Hourly)
00:07 53.6 °F 42.1 °F 23.60 in Calm   -999 mph 65% 0.00 in
00:22 53.2 °F 42.1 °F 23.60 in Calm   -999 mph 66% 0.00 in
00:37 53.1 °F 42 °F 23.59 in Calm   -999 mph 66% 0.00 in
00:52 52.5 °F 41.9 °F 23.59 in Calm   -999 mph 67% 0.00 in
01:08 52 °F 42.1 °F 23.59 in Calm   -999 mph 69% 0.00 in
01:23 51.6 °F 42.5 °F 23.59 in Calm   -999 mph 71% 0.00 in
01:38 51.4 °F 42.7 °F 23.58 in Calm   -999 mph 72% 0.00 in
01:53 51.1 °F 42 °F 23.58 in Calm   -999 mph 71% 0.00 in
02:08 50.9 °F 42.9 °F 23.58 in Calm   -999 mph 74% 0.00 in
02:24 50.7 °F 44.1 °F 23.58 in Calm   -999 mph 78% 0.00 in
02:39 50.4 °F 44.1 °F 23.57 in Calm   -999 mph 79% 0.00 in
02:54 50.2 °F 44.6 °F 23.57 in Calm   -999 mph 81% 0.00 in
03:09 49.8 °F 44.5 °F 23.57 in Calm   -999 mph 82% 0.00 in
03:24 49.5 °F 44.9 °F 23.57 in Calm   -999 mph 84% 0.00 in
03:40 49.6 °F 45.3 °F 23.57 in Calm   -999 mph 85% 0.00 in
03:55 49.5 °F 45.5 °F 23.57 in Calm   -999 mph 86% 0.00 in
04:10 49.1 °F 45.4 °F 23.57 in Calm   -999 mph 87% 0.00 in
04:25 49.1 °F 45.4 °F 23.57 in Calm   -999 mph 87% 0.00 in
04:40 48.9 °F 45.2 °F 23.57 in Calm   -999 mph 87% 0.00 in
04:56 48.6 °F 44.9 °F 23.57 in Calm   -999 mph 87% 0.00 in
05:11 48.6 °F 45.2 °F 23.57 in Calm   -999 mph 88% 0.00 in
05:26 48.6 °F 45.2 °F 23.57 in Calm   -999 mph 88% 0.00 in
05:41 48.4 °F 45 °F 23.58 in Calm   -999 mph 88% 0.00 in
05:56 48.4 °F 45.3 °F 23.58 in Calm   -999 mph 89% 0.00 in
06:12 48.6 °F 45.5 °F 23.58 in Calm   -999 mph 89% 0.00 in
06:27 48.7 °F 45.9 °F 23.58 in Calm   -999 mph 90% 0.00 in
06:42 48.6 °F 45.8 °F 23.59 in Calm   -999 mph 90% 0.00 in
06:57 49.3 °F 46.2 °F 23.59 in Calm   -999 mph 89% 0.00 in
07:13 50.4 °F 47.3 °F 23.59 in Calm   -999 mph 89% 0.00 in
07:28 51.1 °F 47.7 °F 23.59 in Calm   -999 mph 88% 0.00 in
07:43 52.2 °F 49.1 °F 23.59 in Calm   -999 mph 89% 0.00 in
07:58 54.1 °F 50.3 °F 23.59 in Calm   -999 mph 87% 0.00 in
08:13 56.3 °F 50.9 °F 23.59 in Calm   -999 mph 82% 0.00 in
08:29 57.9 °F 52.4 °F 23.59 in Calm   -999 mph 82% 0.00 in
08:44 59.5 °F 53.3 °F 23.59 in Calm   -999 mph 80% 0.00 in
08:59 61.2 °F 53.6 °F 23.59 in Calm   -999 mph 76% 0.00 in
09:14 63 °F 50.2 °F 23.59 in Calm   -999 mph 63% 0.00 in
09:29 66.7 °F 53.7 °F 23.59 in Calm   -999 mph 63% 0.00 in
09:45 69.4 °F 42 °F 23.59 in Calm   -999 mph 37% 0.00 in
10:00 71.8 °F 41.9 °F 23.59 in Calm   -999 mph 34% 0.00 in
10:15 73.4 °F 42.6 °F 23.59 in Calm   -999 mph 33% 0.00 in
10:30 74.1 °F 42.4 °F 23.59 in Calm   -999 mph 32% 0.00 in
10:45 75.4 °F 41.8 °F 23.59 in Calm   -999 mph 30% 0.00 in
11:01 76.6 °F 42 °F 23.59 in Calm   -999 mph 29% 0.00 in
11:16 77.7 °F 41.1 °F 23.60 in Calm   -999 mph 27% 0.00 in
11:31 78.8 °F 42 °F 23.59 in Calm   -999 mph 27% 0.00 in
11:46 79 °F 41.2 °F 23.60 in West 1.1 mph -999 mph 26% 0.00 in
12:01 82.8 °F 43.4 °F 23.60 in Calm   -999 mph 25% 0.00 in
12:17 81.7 °F 43.5 °F 23.60 in Calm   -999 mph 26% 0.00 in
12:32 82.8 °F 42.3 °F 23.59 in Calm   -999 mph 24% 0.00 in
12:47 84.4 °F 43.7 °F 23.59 in Calm   -999 mph 24% 0.00 in
13:02 84.2 °F 43.5 °F 23.59 in Calm   -999 mph 24% 0.00 in
13:17 84.2 °F 42.4 °F 23.58 in WNW 4.7 mph -999 mph 23% 0.00 in
13:33 82.2 °F 48.6 °F 23.58 in Calm   -999 mph 31% 0.00 in
13:48 82.2 °F 52.6 °F 23.58 in NW 1.1 mph -999 mph 36% 0.00 in
14:03 82 °F 52.4 °F 23.57 in NNE 3.7 mph -999 mph 36% 0.00 in
14:18 81.5 °F 53.5 °F 23.57 in Calm   -999 mph 38% 0.00 in
14:34 81 °F 53 °F 23.57 in NNW 1.7 mph -999 mph 38% 0.00 in
14:49 80.4 °F 52.5 °F 23.57 in NNW 3.2 mph -999 mph 38% 0.00 in
15:04 80.8 °F 53.5 °F 23.57 in WNW 1.7 mph -999 mph 39% 0.00 in
15:19 78.3 °F 51.3 °F 23.57 in NNE 1.7 mph -999 mph 39% 0.00 in
15:34 79.5 °F 52.4 °F 23.57 in NW 3.7 mph -999 mph 39% 0.00 in
15:50 79.2 °F 52.1 °F 23.57 in NW 3.2 mph -999 mph 39% 0.00 in
16:05 77.7 °F 52.1 °F 23.56 in Calm   -999 mph 41% 0.00 in
16:20 77 °F 50.8 °F 23.56 in Calm   -999 mph 40% 0.00 in
16:35 77.9 °F 51 °F 23.56 in Calm   -999 mph 39% 0.00 in
16:50 78.8 °F 51.1 °F 23.56 in Calm   -999 mph 38% 0.00 in
17:06 79.5 °F 51.7 °F 23.56 in Calm   -999 mph 38% 0.00 in
17:21 81.1 °F 51.6 °F 23.56 in Calm   -999 mph 36% 0.00 in
17:36 81.7 °F 51.4 °F 23.56 in Calm   -999 mph 35% 0.00 in
17:51 80.8 °F 51.4 °F 23.56 in NW 1.7 mph -999 mph 36% 0.00 in
18:06 79.7 °F 50.4 °F 23.55 in Calm   -999 mph 36% 0.00 in
18:22 77.5 °F 50.6 °F 23.55 in Calm   -999 mph 39% 0.00 in
18:37 77.5 °F 47.7 °F 23.55 in Calm   -999 mph 35% 0.00 in
18:52 73.2 °F 47.4 °F 23.55 in Calm   -999 mph 40% 0.00 in
19:07 71.6 °F 48.5 °F 23.56 in Calm   -999 mph 44% 0.00 in
19:22 68.9 °F 49 °F 23.56 in Calm   -999 mph 49% 0.00 in
19:38 66 °F 46.8 °F 23.56 in Calm   -999 mph 50% 0.00 in
19:53 64.9 °F 43.1 °F 23.56 in Calm   -999 mph 45% 0.00 in
20:08 63.3 °F 41.6 °F 23.56 in Calm   -999 mph 45% 0.00 in
20:23 62.4 °F 41.3 °F 23.56 in Calm   -999 mph 46% 0.00 in
20:39 61.7 °F 41.3 °F 23.57 in Calm   -999 mph 47% 0.00 in
20:54 61 °F 40.6 °F 23.57 in Calm   -999 mph 47% 0.00 in
21:09 60.8 °F 41 °F 23.57 in Calm   -999 mph 48% 0.00 in
21:24 60.4 °F 40.1 °F 23.57 in Calm   -999 mph 47% 0.00 in
21:39 60.1 °F 40.3 °F 23.58 in Calm   -999 mph 48% 0.00 in
21:55 59.5 °F 39.8 °F 23.58 in Calm   -999 mph 48% 0.00 in
22:10 59.7 °F 40 °F 23.58 in Calm   -999 mph 48% 0.00 in
22:25 58.8 °F 40.2 °F 23.58 in Calm   -999 mph 50% 0.00 in
22:40 58.5 °F 40.4 °F 23.58 in Calm   -999 mph 51% 0.00 in
22:55 57.6 °F 40.1 °F 23.58 in Calm   -999 mph 52% 0.00 in
23:11 57.2 °F 40.2 °F 23.57 in Calm   -999 mph 53% 0.00 in
23:26 56.7 °F 40.2 °F 23.57 in Calm   -999 mph 54% 0.00 in
23:41 55.9 °F 41.3 °F 23.57 in Calm   -999 mph 58% 0.00 in
23:56 55.2 °F 41.1 °F 23.56 in Calm   -999 mph 59% 0.00 in
Big Bear CA Weather